Lake Houston Weather Center

Moon Phase Calendar



Lake Houston Water Level
Online Cameras

 


      

Current Conditions in Atascocita
11/30/2021 10:15:05 PM

58°F
Feels Like 56
Clouds
Humidity
70%
Pressure
30.12"
Wind
5.3 mph (SSE)
Dew Point
48°F
UV Index
0/10 (Low)
Visibility
6 mi

Hourly Forecast

Date & Time Tue, Nov 30
10:00 PM
Tue, Nov 30
11:00 PM
Wed, Dec 1
12:00 AM
Wed, Dec 1
1:00 AM
Wed, Dec 1
2:00 AM
Wed, Dec 1
3:00 AM
Wed, Dec 1
4:00 AM
Wed, Dec 1
5:00 AM
Wed, Dec 1
6:00 AM
Wed, Dec 1
7:00 AM
Wed, Dec 1
8:00 AM
Wed, Dec 1
9:00 AM
Wed, Dec 1
10:00 AM
Wed, Dec 1
11:00 AM
Wed, Dec 1
12:00 PM
Wed, Dec 1
1:00 PM
Wed, Dec 1
2:00 PM
Wed, Dec 1
3:00 PM
Wed, Dec 1
4:00 PM
Wed, Dec 1
5:00 PM
Wed, Dec 1
6:00 PM
Wed, Dec 1
7:00 PM
Wed, Dec 1
8:00 PM
Wed, Dec 1
9:00 PM
Wed, Dec 1
10:00 PM
Wed, Dec 1
11:00 PM
Thu, Dec 2
12:00 AM
Thu, Dec 2
1:00 AM
Thu, Dec 2
2:00 AM
Thu, Dec 2
3:00 AM
Thu, Dec 2
4:00 AM
Thu, Dec 2
5:00 AM
Thu, Dec 2
6:00 AM
Thu, Dec 2
7:00 AM
Thu, Dec 2
8:00 AM
Thu, Dec 2
9:00 AM
Thu, Dec 2
10:00 AM
Thu, Dec 2
11:00 AM
Thu, Dec 2
12:00 PM
Thu, Dec 2
1:00 PM
Thu, Dec 2
2:00 PM
Thu, Dec 2
3:00 PM
Thu, Dec 2
4:00 PM
Thu, Dec 2
5:00 PM
Thu, Dec 2
6:00 PM
Thu, Dec 2
7:00 PM
Thu, Dec 2
8:00 PM
Thu, Dec 2
9:00 PM
Condition
Clouds

Clouds

Clouds

Clouds

Clouds

Clouds

Clouds

Clouds

Clouds

Clouds

Clouds

Clouds

Clouds

Clouds

Clouds

Clouds

Clouds

Clouds

Clouds

Clouds

Clouds

Clouds

Clouds

Clouds

Clouds

Clouds

Clouds

Clouds

Clouds

Clouds

Clouds

Clouds

Clouds

Clouds

Clouds

Clouds

Clouds

Clouds

Clouds

Clouds

Clouds

Clouds

Clouds

Clouds

Clouds

Clouds

Clouds

Clouds
Temperature 58°F58°F58°F59°F59°F59°F59°F59°F59°F59°F60°F64°F67°F70°F72°F74°F74°F75°F74°F70°F67°F66°F65°F65°F64°F64°F63°F63°F62°F62°F61°F61°F61°F61°F62°F66°F70°F72°F75°F76°F77°F77°F75°F71°F68°F68°F67°F66°F
Feels Like 56°F57°F57°F58°F58°F58°F58°F58°F58°F58°F60°F63°F67°F70°F72°F73°F74°F74°F73°F70°F67°F66°F65°F65°F64°F64°F63°F63°F62°F62°F62°F61°F61°F61°F62°F66°F70°F72°F74°F76°F77°F77°F75°F71°F68°F68°F67°F66°F
Cloudiness 59%61%64%84%92%100%99%99%100%100%100%100%100%100%95%94%97%98%98%97%94%59%32%43%52%51%55%84%62%61%55%48%46%89%93%90%71%70%65%46%73%78%84%87%89%100%100%100%
Visibility 6 mi6 mi6 mi6 mi6 mi6 mi6 mi6 mi6 mi6 mi6 mi6 mi6 mi6 mi6 mi6 mi6 mi6 mi6 mi6 mi6 mi6 mi6 mi6 mi6 mi6 mi6 mi6 mi6 mi6 mi6 mi6 mi6 mi6 mi6 mi6 mi6 mi6 mi6 mi6 mi6 mi6 mi6 mi6 mi6 mi6 mi6 mi6 mi
Precipitation 0%0%0%0%0%0%0%0%0%0%0%0%0%0%0%0%0%0%0%0%0%0%0%0%0%0%0%0%0%0%0%0%0%0%0%0%0%0%0%0%0%0%0%0%0%0%0%0%
Humidity 70%73%76%79%83%87%88%88%88%89%85%77%70%63%57%54%52%52%56%64%71%74%77%79%81%84%85%87%88%88%89%90%90%90%87%78%69%63%57%53%51%51%57%68%75%77%80%81%
Dew Point 48°F49°F51°F52°F54°F55°F55°F55°F55°F55°F56°F56°F57°F57°F56°F56°F55°F56°F57°F57°F57°F57°F58°F58°F58°F59°F59°F59°F58°F58°F58°F58°F58°F58°F58°F59°F59°F59°F59°F58°F57°F57°F58°F59°F60°F60°F60°F60°F
Pressure 30.12"30.12"30.12"30.12"30.12"30.12"30.12"30.12"30.12"30.15"30.18"30.18"30.18"30.18"30.15"30.12"30.09"30.09"30.09"30.09"30.09"30.12"30.12"30.15"30.15"30.15"30.15"30.15"30.15"30.15"30.15"30.15"30.15"30.18"30.18"30.21"30.21"30.18"30.18"30.15"30.12"30.09"30.09"30.12"30.12"30.15"30.15"30.15"
Wind Speed 5.3 mph5.6 mph5.6 mph4.8 mph3.4 mph3.7 mph4 mph4 mph2.9 mph3.3 mph2 mph3.3 mph4.2 mph4.5 mph6.1 mph5.4 mph5.1 mph6.9 mph6.5 mph4.6 mph4.1 mph4.1 mph3.2 mph3.9 mph4.6 mph4.8 mph4.7 mph5 mph4.6 mph4.2 mph4.6 mph4.1 mph3 mph3.9 mph3.6 mph3.9 mph4 mph4.3 mph4.8 mph4.8 mph4.7 mph5.6 mph6.7 mph6.4 mph6.5 mph7.4 mph6.8 mph6.7 mph
Wind
Direction
158°
SSE
165°
SSE
174°
S
183°
S
182°
S
183°
S
184°
S
188°
S
193°
SSW
198°
SSW
211°
SSW
207°
SSW
205°
SSW
227°
SW
220°
SW
235°
SW
231°
SW
222°
SW
214°
SW
194°
SSW
185°
S
184°
S
170°
S
168°
SSE
186°
S
192°
SSW
199°
SSW
214°
SW
215°
SW
217°
SW
225°
SW
233°
SW
222°
SW
208°
SSW
206°
SSW
205°
SSW
210°
SSW
210°
SSW
215°
SW
212°
SSW
197°
SSW
179°
S
172°
S
151°
SSE
151°
SSE
164°
SSE
169°
S
182°
S

Daily Forecast

Date High Low Precip. Humidity
Today
Nov 30

Clouds
71 °F
54 °F
0%
53%
Wednesday
Dec 1

Clouds
75 °F
58 °F
0%
57%
Thursday
Dec 2

Clouds
77 °F
61 °F
0%
57%
Friday
Dec 3

Clouds
73 °F
62 °F
0%
62%
Saturday
Dec 4

Clouds
76 °F
65 °F
38%
58%
Sunday
Dec 5

Rain
77 °F
64 °F
44%
74%
Monday
Dec 6

Rain
71 °F
61 °F
94%
85%
Tuesday
Dec 7

Rain
78 °F
61 °F
100%
76%
Wednesday
Dec 8

Rain
78 °F
62 °F
100%
79%
Thursday
Dec 9

Clouds
71 °F
57 °F
0%
56%
Friday
Dec 10

Rain
74 °F
60 °F
36%
92%
Saturday
Dec 11

Rain
78 °F
69 °F
72%
79%
Sunday
Dec 12

Clouds
79 °F
68 °F
0%
73%
Monday
Dec 13

Clouds
80 °F
68 °F
0%
65%
Tuesday
Dec 14

Rain
79 °F
69 °F
20%
66%
Wednesday
Dec 15

Clouds
79 °F
66 °F
0%
60%

Temperature 8-14 Day Outlook



Precipitation 8-14 Day Outlook




Quick Links
Lake Houston News
Lake Houston Photos
Lake Houston Videos




About Us
Contact Us
Site Map
Search Site
Advertise With Us
   
Houston.USLakes.info
THE LAKE HOUSTON WEBSITE

Copyright 2021, Lakes Online
Privacy    |    Legal